Regional Weather Roundup
Issued by NWS Green Bay, WI

Home | Current Version | Previous Version | Graphics & Text | Print | Product List | Glossary Off
Versions: 1 2 3 4 5 6 7 8 9 10 11 12 13 14 15 16 17 18 19 20 21 22 23 24 25 26 27 28 29 30 31 32 33 34 35 36 37 38 39 40 41 42 43 44 45 46 47 48 49 50

000
ASUS43 KGRB 301311
RWRGRB

NORTH-CENTRAL AND NORTHEAST WISCONSIN REGIONAL WEATHER ROUNDUP
NATIONAL WEATHER SERVICE GREEN BAY WI
800 AM CDT SUN AUG 30 2015

WIZ005-009-010>012-018-019-301400-
NORTH CENTRAL WISCONSIN

CITY           SKY/WX    TMP DP  RH WIND       PRES   REMARKS
IRONWOOD       PTSUNNY   63  61  94 SW9       29.96F
MANITOWISH WTR CLOUDY    61  61 100 SW8       30.03F
ARBOR VITAE    CLOUDY    62  61  96 S5        30.04F
EAGLE RIVER    CLOUDY    60  60 100 SW7       30.05F FOG
LAND O LAKES   CLOUDY    61  60  97 SW5       30.05S
RHINELANDER    FOG       59  58  96 S6        30.07S VSB 1
PHILLIPS       CLOUDY    58  58 100 S5        30.04S FOG
ANTIGO         FOG       55  55 100 CALM      30.07F VSB 1/4
TOMAHAWK       FOG       54  53  97 CALM      30.07S VSB 1/2
MERRILL        FOG       54  54 100 CALM      30.07F VSB<1/4
$$

WIZ013-073-301400-
NORTHEAST WISCONSIN

CITY           SKY/WX    TMP DP  RH WIND       PRES   REMARKS
IRON MOUNTAIN  NOT AVBL
MARINETTE      SUNNY     61  57  88 SW6       30.05S
OCONTO         SUNNY     56  56 100 CALM      30.06S
$$

WIZ017-030-035>037-045-301400-
CENTRAL WISCONSIN

CITY           SKY/WX    TMP DP  RH WIND       PRES   REMARKS
MEDFORD          N/A     55  55 100 S3        30.06F FOG
WAUSAU         FOG       53  53 100 CALM      30.06S VSB 1/4
MOSINEE        FOG       54  54 100 CALM      30.08R VSB 1/4
MARSHFIELD     SUNNY     59  56  89 SW5       30.07S FOG
WISC RAPIDS    SUNNY     58  56  93 CALM      30.08S FOG
STEVENS POINT  FOG       54  54  99 CALM      30.08S VSB 1/4
WAUPACA        FOG       56  55  95 CALM      30.09R VSB 1/4
SHAWANO        PTSUNNY   56  55  95 CALM      30.07S FOG
CLINTONVILLE   FOG       54  52  94 CALM      30.07S VSB 1/2
WAUTOMA        FOG       56  56 100 CALM      30.08S VSB<1/4
$$

WIZ038-039-048-051-301400-
FOX VALLEY

CITY           SKY/WX    TMP DP  RH WIND       PRES   REMARKS
NWS GREEN BAY  FOG       58  58 100 CALM      30.08R VSB 1/4
APPLETON       PTSUNNY   61  61 100 CALM      30.07S FOG
OSHKOSH        FOG       59  58  96 S3        30.08R VSB 1/4
FOND DU LAC    FOG       63  60  90 CALM      30.08S VSB 1/4
$$

WIZ022-050-052-301400-
EAST CENTRAL WISCONSIN

CITY           SKY/WX    TMP DP  RH WIND       PRES   REMARKS
EPHRAIM        CLOUDY    59  59 100 CALM      30.06R FOG
STURGEON BAY   CLOUDY    61  57  88 CALM      30.09S VSB 1/4
MANITOWOC      FOG       58  58 100 MISG      30.08S VSB 1/4
SHEBOYGAN      FOG       58  58 100 CALM      30.08S VSB 1/4
$$

LMZ563-521-522-541>543-301400-
LAKESHORE

STATION/POSITION TIME  TEMP    WIND        PRES    VSBY  WAVE
                       AIR SEA DIR/SP/G                  HT/PER
                 (UTC) (F)     (DEG/KT/KT) (MB)    (MI)  (FT/S)
SHEBOYGAN LKSHOR 1300   54      10/  2/  3 1019.0R
ALGOMA MARINA    1244             CALM       N/A
NORTHPORT PIER   1204   63      CALM  /  5 1017.6R
N MID LAKE BUOY  1250   63 64  200/  8/ 10 1017.4F         0
S GREEN BAY BUOY 1300   60 62  180/  6/  6 1019.5F
SISTER BAY LKSHO 1219   65        CALM       N/A
CHAMBERS ISLAND  1200   59      CALM  /  4 1017.9R
$$



USA.gov is the U.S. government's official web portal to all federal, state and local government web resources and services.